weather.gov     
National Weather Service

Terminal Aerodrome Forecast
NWS Homepage
This page is being discontinued on March 12, 2014.
The same data is available at this site. Please update your bookmarks.
Thank you, and we apologize for the inconvenience.
Please send an email to SR-SRH.Webmaster@noaa.gov with any concerns.


Current Version
Previous Version:    01  02  03  04  05  06  07  08  09  10  11  12  13  14  
[Printable]
911
FTUS41 KBOX 282320
TAFBOS
TAF
KBOS 282320Z 2900/3006 33012KT P6SM FEW070
     FM291400 02009KT P6SM SKC
     FM291700 07009KT P6SM FEW250
     FM292300 11008KT P6SM FEW250
     FM300200 15006KT P6SM FEW250=




911
FTUS41 KBOX 282320
TAFBOS
TAF
KBOS 282320Z 2900/3006 33012KT P6SM FEW070
     FM291400 02009KT P6SM SKC
     FM291700 07009KT P6SM FEW250
     FM292300 11008KT P6SM FEW250
     FM300200 15006KT P6SM FEW250=


U.S. Dept. of Commerce
NOAA National Weather Service
1325 East West Highway
Silver Spring, MD 20910
E-mail: w-nws.webmaster@noaa.gov
Page last modified: May 16, 2007
NATIONAL WEATHER SERVICE: for Safety, for Work, for Fun - FOR LIFE